Аэропорт
Запорожье (UKDE)

 UKDE / OZH
vACC Украина
Днепропетровск (UKDV)
Днепропетровск (UKDV)
 47.86700, 35.31570  / 373 ft

 UKDE 261130Z 15004MPS 110V180 9999 SCT049 07/03 Q1010 R20/210570 NOSIG
 TAF UKDE 260807Z 2609/2618 18005MPS 9999 BKN020 TX06/2612Z TN03/2618Z TEMPO 2609/2614 21007G12MPS BECMG 2614/2616 31005MPS TEMPO 2616/2618 33012G17MPS 2100 -SHRA BKN008 BKN015CB

Запорожье (укр. Запоріжжя) — международный аэропорт города Запорожье (Украина) обеспечивающий взлёт и посадку на двух взлётно-посадочных полосах (искусственной и грунтовой). Работает в круглосуточном режиме. Расположен в черте города к востоку от центра на расстоянии около 15 км от центральной части Запорожья. Эксплуатантом аэропорта является коммунальное предприятие «Международный аэропорт Запорожье».

Сценарии и схемы аэропорта Вы можете найти на сайте vACC Украина.



2020 © VATRUS division (Privacy Policy)